FDX5081 KMEM-EDDK

Flight info

Callsign FDX5081
Flight time N/A
Altitude 33000
Route GOETZ7 DIYAB DCT HITMN Q34 RBV Q22 FOXWD DCT EBONY N567B TUDEP/M083F360 DCT 52N050W 53N040W 54N030W 55N020W DCT RESNO DCT NETKI/N0477F370 DCT CON DCT MORAG DCT NUCHU L607 BIG UL9 KONAN UL607 KOK DCT DENOX DCT REMBA UL607 SPI/N0442F230 T857 DENOV T861 ERUKI ERUKI1C
Aircraft B77L/H-SDE1E2E3FGHIJ2J3J4J5M1RWXY/LB1D1

Departure

Time N/A
Airport Memphis International Airport (KMEM)

Arrival

Time 2026-05-06 12:00
Airport Cologne Bonn Airport (EDDK)
Time Latitude Longitude Altitude Speed Heading
2026-05-06 11:37 50.53828 5.51323 35858 ft 485 kts 110°
2026-05-06 11:37 50.52831 5.56383 35858 ft 485 kts 104°
2026-05-06 11:37 50.52353 5.61654 35477 ft 494 kts 94°
2026-05-06 11:38 50.52536 5.67102 34646 ft 503 kts 82°
2026-05-06 11:38 50.53031 5.70653 34121 ft 502 kts 74°
2026-05-06 11:38 50.54157 5.75844 33181 ft 501 kts 71°
2026-05-06 11:38 50.55328 5.80998 32204 ft 500 kts 71°
2026-05-06 11:39 50.56479 5.86152 31258 ft 498 kts 72°
2026-05-06 11:39 50.57588 5.91296 30288 ft 497 kts 73°
2026-05-06 11:39 50.59009 5.98069 29304 ft 487 kts 73°
2026-05-06 11:39 50.59718 6.01469 28804 ft 482 kts 73°
2026-05-06 11:40 50.60754 6.06451 28114 ft 475 kts 73°
2026-05-06 11:40 50.61775 6.11364 27457 ft 469 kts 73°
2026-05-06 11:40 50.62691 6.16241 26751 ft 463 kts 78°
2026-05-06 11:40 50.63210 6.21212 26108 ft 457 kts 85°
2026-05-06 11:41 50.63393 6.26184 25473 ft 452 kts 90°
2026-05-06 11:41 50.63218 6.31093 24860 ft 447 kts 96°
2026-05-06 11:41 50.62907 6.35956 24251 ft 444 kts 96°
2026-05-06 11:41 50.62623 6.40776 23651 ft 441 kts 95°
2026-05-06 11:42 50.62371 6.45578 22982 ft 439 kts 95°
2026-05-06 11:42 50.62131 6.50353 22333 ft 436 kts 95°
2026-05-06 11:42 50.61889 6.55094 21740 ft 432 kts 96°
2026-05-06 11:42 50.61641 6.59787 21163 ft 428 kts 96°
2026-05-06 11:43 50.61390 6.64429 20601 ft 424 kts 96°
2026-05-06 11:43 50.61175 6.69025 20027 ft 415 kts 91°
2026-05-06 11:43 50.61624 6.73486 19480 ft 415 kts 70°
2026-05-06 11:44 50.64892 6.80800 18421 ft 412 kts 39°
2026-05-06 11:44 50.67126 6.83522 17847 ft 410 kts 36°
2026-05-06 11:44 50.69400 6.86289 17531 ft 403 kts 37°
2026-05-06 11:44 50.71560 6.88999 17347 ft 392 kts 38°
2026-05-06 11:45 50.73645 6.91678 17165 ft 382 kts 40°
2026-05-06 11:45 50.75519 6.94576 16971 ft 370 kts 49°
2026-05-06 11:45 50.76760 6.97969 16807 ft 358 kts 75°
2026-05-06 11:45 50.77061 7.01781 16679 ft 346 kts 95°
2026-05-06 11:46 50.76632 7.05442 16544 ft 335 kts 111°
2026-05-06 11:46 50.75751 7.08780 16385 ft 325 kts 123°
2026-05-06 11:46 50.74389 7.11487 16233 ft 305 kts 141°
2026-05-06 11:46 50.72832 7.13674 15990 ft 297 kts 142°
2026-05-06 11:47 50.71297 7.15822 15664 ft 292 kts 142°
2026-05-06 11:47 50.69795 7.17952 15328 ft 288 kts 141°
2026-05-06 11:47 50.68323 7.20057 15016 ft 284 kts 141°
2026-05-06 11:47 50.66871 7.22140 14687 ft 280 kts 141°
2026-05-06 11:48 50.65439 7.24197 14362 ft 276 kts 141°
2026-05-06 11:48 50.64027 7.26226 14041 ft 274 kts 141°
2026-05-06 11:48 50.62624 7.28241 13731 ft 272 kts 141°
2026-05-06 11:48 50.61232 7.30238 13336 ft 270 kts 141°
2026-05-06 11:49 50.59846 7.32225 12931 ft 269 kts 141°
2026-05-06 11:49 50.58466 7.34202 12578 ft 267 kts 141°
2026-05-06 11:49 50.57097 7.36163 12271 ft 265 kts 141°
2026-05-06 11:49 50.55742 7.38103 11941 ft 263 kts 141°
2026-05-06 11:50 50.54391 7.40034 11571 ft 262 kts 141°
2026-05-06 11:50 50.53044 7.41958 11198 ft 260 kts 141°
2026-05-06 11:50 50.51726 7.43885 10807 ft 257 kts 135°
2026-05-06 11:50 50.50851 7.46351 10330 ft 266 kts 105°
2026-05-06 11:51 50.50845 7.49251 9920 ft 270 kts 76°
2026-05-06 11:51 50.51688 7.51868 9524 ft 270 kts 53°
2026-05-06 11:51 50.52847 7.54171 9128 ft 268 kts 51°
2026-05-06 11:51 50.54211 7.56117 8635 ft 266 kts 26°
2026-05-06 11:52 50.55954 7.56863 8122 ft 258 kts 356°
2026-05-06 11:52 50.57660 7.56260 7499 ft 250 kts 330°
2026-05-06 11:52 50.59045 7.54685 6884 ft 244 kts 313°
2026-05-06 11:52 50.60291 7.52873 6364 ft 243 kts 313°
2026-05-06 11:53 50.61520 7.51093 5796 ft 241 kts 314°
2026-05-06 11:53 50.62763 7.49309 5306 ft 241 kts 314°
2026-05-06 11:53 50.64000 7.47538 5047 ft 239 kts 315°
2026-05-06 11:53 50.65212 7.45800 4842 ft 234 kts 316°
2026-05-06 11:54 50.66390 7.44107 4525 ft 234 kts 317°
2026-05-06 11:54 50.67589 7.42390 4188 ft 232 kts 317°
2026-05-06 11:54 50.68757 7.40713 4070 ft 222 kts 317°
2026-05-06 11:54 50.69898 7.39076 4034 ft 221 kts 317°
2026-05-06 11:55 50.71027 7.37459 4049 ft 219 kts 317°
2026-05-06 11:55 50.72165 7.35834 3901 ft 224 kts 317°
2026-05-06 11:55 50.73312 7.34187 3598 ft 220 kts 317°
2026-05-06 11:55 50.74416 7.32598 3323 ft 209 kts 317°
2026-05-06 11:56 50.75465 7.31087 3024 ft 200 kts 317°
2026-05-06 11:56 50.76463 7.29639 2759 ft 189 kts 317°
2026-05-06 11:56 50.77414 7.28272 2518 ft 181 kts 317°
2026-05-06 11:56 50.78325 7.26959 2270 ft 173 kts 317°
2026-05-06 11:57 50.79179 7.25726 2058 ft 157 kts 317°
2026-05-06 11:57 50.79949 7.24613 1836 ft 142 kts 317°
2026-05-06 11:57 50.80661 7.23586 1675 ft 138 kts 316°
2026-05-06 11:57 50.81374 7.22559 1474 ft 138 kts 316°
2026-05-06 11:58 50.82060 7.21562 1279 ft 134 kts 316°
2026-05-06 11:58 50.82747 7.20566 1087 ft 135 kts 317°
2026-05-06 11:58 50.83442 7.19562 914 ft 137 kts 317°
2026-05-06 11:58 50.84141 7.18558 716 ft 133 kts 316°
2026-05-06 11:59 50.84816 7.17587 552 ft 131 kts 316°
2026-05-06 11:59 50.85497 7.16601 382 ft 134 kts 317°
2026-05-06 11:59 50.86166 7.15633 304 ft 121 kts 317°
2026-05-06 11:59 50.86695 7.14865 275 ft 82 kts 317°
2026-05-06 12:00 50.87002 7.14421 260 ft 38 kts 317°
2026-05-06 12:00 50.87157 7.14198 253 ft 26 kts 317°
2026-05-06 12:00 50.87269 7.13981 247 ft 26 kts 298°
2026-05-06 12:00 50.87318 7.13737 243 ft 19 kts 279°
2026-05-06 12:01 50.87337 7.13544 238 ft 14 kts 279°
2026-05-06 12:01 50.87350 7.13421 237 ft 10 kts 279°
2026-05-06 12:01 50.87362 7.13321 237 ft 9 kts 288°
2026-05-06 12:01 50.87395 7.13240 237 ft 9 kts 312°
2026-05-06 12:02 50.87441 7.13173 237 ft 9 kts 318°
2026-05-06 12:02 50.87487 7.13107 237 ft 9 kts 318°
2026-05-06 12:02 50.87533 7.13040 237 ft 9 kts 317°
2026-05-06 12:02 50.87579 7.12973 237 ft 9 kts 317°
2026-05-06 12:03 50.87624 7.12907 237 ft 6 kts 317°
2026-05-06 12:03 50.87631 7.12857 237 ft 6 kts 239°
2026-05-06 12:03 50.87606 7.12805 237 ft 6 kts 227°
2026-05-06 12:03 50.87591 7.12780 237 ft 1 kts 227°
2026-05-06 12:04 50.87586 7.12770 237 ft 0 kts 227°